Location: Kennington
(51.1500°N, 0.8833°E)
Time: 10:45:17
(UTC+00:00)

Cosmos 2218 Rocket - Pass Details

Date: 21 September 2020
Orbit: 956 x 1006 km, 82.9° (Epoch: 30 October)

Event Time Altitude Azimuth Distance (km) Brightness Sun altitude
Rises 02:09:24 0° 347° (NNW) 3,741 7.5 -30.4°
Reaches altitude 10° 02:11:58 10° 344° (NNW) 2,790 6.7 -30.1°
Enters shadow 02:16:58 49° 308° (NW) 1,286 4.5 -29.6°
